Location: Arleux
(50.3632°N, 2.8721°E)
Time: 16:41:30
(UTC+00:00)

X-37B - Visible Passes

Search period start: 08 March 2021 00:00
Search period end: 18 March 2021 00:00
Orbit: 383 x 391 km, 45.0° (Epoch: 27 February)

Date Brightness Start Highest point End Pass type
(mag) Time Alt. Az. Time Alt. Az. Time Alt. Az.
12 Mar 3.2 19:54:50 10° SSW 19:55:23 13° SSW 19:55:23 13° SSW visible
13 Mar 2.6 18:57:08 10° SSW 18:59:11 16° SSE 18:59:58 15° SE visible
14 Mar 2.0 19:34:17 10° SW 19:36:45 26° S 19:36:45 26° S visible
15 Mar 2.3 18:36:20 10° SW 18:38:51 21° SSE 18:41:10 11° ESE visible
15 Mar 2.8 20:12:06 10° WSW 20:13:28 20° SW 20:13:28 20° SW visible
16 Mar 1.8 19:13:54 10° WSW 19:16:46 30° S 19:17:49 24° SE visible
17 Mar 1.9 19:51:53 10° WSW 19:54:25 29° SSW 19:54:25 29° SSW visible
